TimeEDT,TemperatureF,Dew PointF,Humidity,Sea Level PressureIn,VisibilityMPH,Wind Direction,Wind SpeedMPH,Gust SpeedMPH,PrecipitationIn,Events,Conditions,WindDirDegrees,DateUTC
12:55 AM,66.7,66.7,100,30.14,7.0,SW,5.8,-,N/A,,Partly Cloudy,230,2012-10-05 04:55:00
1:55 AM,67.6,67.6,100,30.14,6.0,West,4.6,-,N/A,,Mostly Cloudy,260,2012-10-05 05:55:00
2:55 AM,67.5,67.5,100,30.13,5.0,Calm,Calm,-,N/A,,Clear,0,2012-10-05 06:55:00
3:15 AM,68.0,68.0,100,30.13,4.0,Calm,Calm,-,N/A,,Clear,0,2012-10-05 07:15:00
3:33 AM,68.0,68.0,100,30.13,1.2,Calm,Calm,-,N/A,,Clear,0,2012-10-05 07:33:00
3:55 AM,67.1,67.1,100,30.13,1.2,WNW,3.5,-,N/A,,Clear,290,2012-10-05 07:55:00
3:57 AM,66.2,66.2,100,30.13,0.8,WNW,3.5,-,N/A,,Clear,290,2012-10-05 07:57:00
3:58 AM,66.2,66.2,100,30.13,0.8,WNW,3.5,-,N/A,,Clear,290,2012-10-05 07:58:00
4:01 AM,66.2,66.2,100,30.13,0.8,WNW,4.6,-,N/A,,Clear,300,2012-10-05 08:01:00
4:02 AM,66.2,66.2,100,30.13,1.0,WNW,4.6,-,N/A,,Clear,300,2012-10-05 08:02:00
4:09 AM,66.2,66.2,100,30.13,3.0,WNW,4.6,-,N/A,,Partly Cloudy,300,2012-10-05 08:09:00
4:55 AM,66.9,66.9,100,30.14,8.0,WNW,4.6,-,N/A,,Clear,300,2012-10-05 08:55:00
5:10 AM,66.2,66.2,100,30.14,9.0,NW,3.5,-,N/A,,Scattered Clouds,320,2012-10-05 09:10:00
5:55 AM,67.5,63.1,86,30.15,10.0,NNW,3.5,-,N/A,,Mostly Cloudy,330,2012-10-05 09:55:00
6:55 AM,65.5,60.1,83,30.14,10.0,Calm,Calm,-,N/A,,Partly Cloudy,0,2012-10-05 10:55:00
7:55 AM,63.7,59.4,86,30.15,10.0,Calm,Calm,-,N/A,,Clear,0,2012-10-05 11:55:00
8:55 AM,67.8,59.2,74,30.15,10.0,Calm,Calm,-,N/A,,Clear,0,2012-10-05 12:55:00
9:55 AM,71.2,53.4,53,30.16,10.0,NW,3.5,-,N/A,,Clear,310,2012-10-05 13:55:00
10:55 AM,74.7,47.7,38,30.16,10.0,Variable,6.9,-,N/A,,Clear,0,2012-10-05 14:55:00
11:55 AM,77.4,43.0,29,30.14,10.0,North,9.2,-,N/A,,Clear,360,2012-10-05 15:55:00
12:55 PM,77.9,46.2,33,30.12,10.0,NNE,6.9,-,N/A,,Clear,20,2012-10-05 16:55:00
1:55 PM,78.6,47.7,34,30.09,10.0,ENE,8.1,-,N/A,,Clear,70,2012-10-05 17:55:00
2:55 PM,76.6,44.4,32,30.07,10.0,ENE,10.4,-,N/A,,Clear,70,2012-10-05 18:55:00
3:55 PM,78.3,44.4,30,30.06,10.0,ENE,6.9,-,N/A,,Partly Cloudy,60,2012-10-05 19:55:00
4:55 PM,77.2,42.8,29,30.05,10.0,East,5.8,-,N/A,,Clear,100,2012-10-05 20:55:00
5:55 PM,76.1,43.7,31,30.04,10.0,SE,5.8,-,N/A,,Clear,130,2012-10-05 21:55:00
6:55 PM,73.0,47.7,40,30.04,10.0,ESE,4.6,-,N/A,,Clear,120,2012-10-05 22:55:00
7:55 PM,66.7,54.5,65,30.04,10.0,ESE,4.6,-,N/A,,Clear,120,2012-10-05 23:55:00
8:55 PM,69.1,55.6,62,30.04,10.0,SSE,6.9,-,N/A,,Clear,160,2012-10-06 00:55:00
9:55 PM,66.2,56.7,71,30.05,10.0,South,6.9,-,N/A,,Clear,180,2012-10-06 01:55:00
10:55 PM,67.1,56.3,68,30.04,10.0,South,6.9,-,N/A,,Clear,180,2012-10-06 02:55:00
11:55 PM,66.7,57.0,71,30.03,10.0,SSW,8.1,-,N/A,,Clear,200,2012-10-06 03:55:00